Coats - southern half: Past 24 Hour Conditions

 

Pangnirtung Airport

10:00 AM EDT 25 October 2014
This table is a summary of hourly weather conditions for the past 24 hours.
Date / Time
(EDT)
Wind(knots) Conditions Visibility(km) Pressure(kPa) Air tempC) Relative humidity(%) Dew pointC) Wind Chill
25 October 2014
10:00 SE 7 Sunny 24 101.9 -14 62 -20 -21
9:00 SSE 4 N/A N/A 101.9 -14 72 -18 -19
8:00 SE 2 N/A N/A 101.9 -15 68 -20 -18
7:00 SSW 3 N/A N/A 102.0 -14 70 -19 -18
6:00 S 2 N/A N/A 101.9 -14 70 -19 -17
5:00 S 2 N/A N/A 101.9 -14 71 -19 -17
4:00 S 3 N/A N/A 101.9 -15 71 -19 -18
3:00 WSW 3 N/A N/A 101.9 -14 68 -19 -17
2:00 calm N/A N/A 102.0 -14 67 -19 *
1:00 NW 12 gust 19 N/A N/A 102.0 -13 66 -19 -23
0:00 NW 9 gust 19 N/A N/A 102.0 -13 70 -17 -21
24 October 2014
23:00 NW 12 gust 17 N/A N/A 102.0 -13 65 -18 -21
22:00 NW 5 N/A N/A 102.0 -12 67 -17 -18
21:00 ESE 5 N/A N/A 102.1 -14 70 -18 -19
20:00 SSW 2 N/A N/A 102.1 -13 67 -18 -16
19:00 S 8 N/A N/A 102.1 -13 66 -19 -21
18:00 SSE 3 Clear 24 102.1 -13 68 -18 -16
17:00 N 1 Clear 24 102.1 -13 64 -18 -14
16:00 WSW 16 Sunny 24 102.0 -12 62 -18 -22
15:00 NW 9 gust 16 Drifting Snow 24 102.0 -12 62 -18 -19
14:00 WSW 10 Sunny 24 101.9 -12 60 -18 -20
13:00 W 13 gust 26 Sunny 24 101.9 -12 64 -18 -21
12:00 NW 16 gust 21 Drifting Snow 24 101.8 -12 61 -18 -22
11:00 NW 11 gust 21 Drifting Snow 24 101.8 -13 62 -18 -21
10:00 NW 18 gust 23 Drifting Snow 24 101.6 -12 66 -17 -23
 
Map of Arctic - Eastern Arctic marine weather areas Baker Lake Airport Chesterfield Inlet Airport Coral Harbour Airport Gjoa Haven Airport Kugaaruk Airport Rankin Inlet Airport Shepherd Bay Airport Whale Cove Airport Arctic Bay Brevoort Island Qikiqtarjuaq Airport Cape Dorset Airport Cape Dyer Cape Hooper Clyde Airport Grise Fiord Airport Hall Beach Airport Igloolik Airport Iqaluit Airport Longstaff Bluff Pangnirtung Airport Pond Inlet Airport Repulse Bay Airport Resolute Airport Resolution Island Rowley Island Airport Taloyoak Airport Wager Bay Akulivik Airport Ivujivik Airport Puvirnituq Airport Kangiqsujuaq Airport Kangirsuk Airport Quaqtaq Airport Tasiujaq Airport Cape Kakkiviak Cape Kiglapait Nain Airport Saglek Cape Mercy Kimmirut Airport Aupaluk Airport Salluit Airport Kangiqsualujjuaq Airport Fort Ross
Legend: buoyBuoy land stationLand Station